Regional Weather Roundup
Issued by NWS

Home | Current Version | Previous Version | Graphics & Text | Print | Product List | Glossary Off
Versions: 1 2 3 4 5 6 7 8 9 10 11 12 13 14 15 16 17 18 19 20 21 22 23 24 25 26 27 28 29 30 31 32 33 34 35 36 37 38 39 40 41 42 43 44 45 46 47 48 49 50

000
ASUS43 KMKX 251844
RWRWI

WISCONSIN REGIONAL WEATHER ROUNDUP
NATIONAL WEATHER SERVICE MILWAUKEE/SULLIVAN WI
200 PM CDT MON MAY 25 2015

NOTE: "FAIR" INDICATES FEW OR NO CLOUDS BELOW 12,000 FEET WITH NO
SIGNIFICANT WEATHER AND/OR OBSTRUCTIONS TO VISIBILITY.

WIZ001-002-006>008-014>016-023>028-252000-
NORTHWEST WISCONSIN

CITY           SKY/WX    TMP DP  RH WIND       PRES   REMARKS
SUPERIOR ARPT  CLOUDY    49  48  99 NE12      29.70R
ASHLAND        CLOUDY    52  52 100 N5        29.69S FOG
HAYWARD        CLOUDY    61  58  90 SW3       29.68S
SIREN          RAIN      61  60  96 SW6       29.68S
CUMBERLAND     CLOUDY    63  59  88 SW9       29.69S
RICE LAKE      CLOUDY    65  60  82 S9        29.71R
CHETEK         CLOUDY    65  62  89 S8        29.70S
LADYSMITH      CLOUDY    64  63  97 SW12      29.71S
EAU CLAIRE     CLOUDY    68  60  75 SW16G22   29.71R
MENOMONIE      CLOUDY    67  61  79 SW14      29.71R
NEW RICHMOND   CLOUDY    65  60  83 SW14G21   29.71R
OSCEOLA        CLOUDY    65  62  90 SW14      29.73R
$$

WIZ003>005-009-010-017-018-252000-
NORTH CENTRAL WISCONSIN

CITY           SKY/WX    TMP DP  RH WIND       PRES   REMARKS
MANITOWISH WTR DRIZZLE   62  62 100 SW7       29.68S
ARBOR VITAE    CLOUDY    63  62  95 SW9       29.69R
WOODRUFF       CLOUDY    63  62  95 SW9       29.69R
RHINELANDER    CLOUDY    64  61  90 SW13G21   29.71S
EAGLE RIVER    CLOUDY    60  60  99 S3        29.69S
LAND O LAKES   LGT RAIN  60  59  97 S6        29.70S
PHILLIPS       CLOUDY    61  60  96 SW9       29.69S
TOMAHAWK       CLOUDY    65  61  88 SW7       29.71R
MEDFORD        CLOUDY    65  61  85 SW10G16   29.71S
MERRILL        CLOUDY    67  64  89 SW12      29.71S
$$

WIZ029-030-035-036-043>047-252000-
CENTRAL WISCONSIN

CITY           SKY/WX    TMP DP  RH WIND       PRES   REMARKS
WAUSAU         CLOUDY    68  62  81 W15G21    29.70S
MOSINEE        CLOUDY    70  64  83 SW14      29.72
MARSHFIELD     CLOUDY    68  60  75 SW16G28   29.73R
STEVENS POINT  CLOUDY    68  61  76 SW16G22   29.72F
WAUPACA        PTSUNNY   73  65  76 SW13G18   29.73F
WAUTOMA        PTSUNNY   73  65  76 SW16G25   29.75S
WISC RAPIDS    CLOUDY    72  61  68 SW12G20   29.76R
CAMP DOUGLAS   PTSUNNY   71  68  90 SW16      29.76R
$$

WIZ011>013-019>022-031-037>040-048>050-252000-
NORTHEAST WISCONSIN

CITY           SKY/WX    TMP DP  RH WIND       PRES   REMARKS
ANTIGO         CLOUDY    63  63  99 W14       29.71F FOG
SHAWANO        CLOUDY    68  67  95 SW8       29.71F
OCONTO         CLOUDY    70  66  87 W15G23    29.71R
STURGEON BAY   PTSUNNY   70  63  78 SW20G28   29.74R
GREEN BAY      PTSUNNY   72  66  81 SW12G23   29.73S
MANITOWOC      CLOUDY    73  65  75 SW10      29.76R
APPLETON       PTSUNNY   72  64  78 SW22G31   29.75S
CLINTONVILLE   CLOUDY    70  64  83 W14       29.72S
OSHKOSH        PTSUNNY   72  62  71 SW13G21   29.74F
$$

WIZ032>034-041-042-053>061-252000-
SOUTHWEST WISCONSIN

CITY           SKY/WX    TMP DP  RH WIND       PRES   REMARKS
LA CROSSE      PTSUNNY   77  60  55 SW17G28   29.74S
SPARTA         CLOUDY    71  60  67 SW8       29.77R
VIROQUA        CLOUDY    71  65  80 SW18G24   29.80R
BOSCOBEL       PTSUNNY   73  63  70 SW13      29.80R
PRAIRIE DU CHI PTSUNNY   74  62  66 SW15      29.79F
PLATTEVILLE    PTSUNNY   71  65  82 SW17      29.84F
$$

WIZ056-057-062-063-064-067-068-252000-
SOUTH CENTRAL WISCONSIN

CITY           SKY/WX    TMP DP  RH WIND       PRES   REMARKS
REEDSBURG      CLOUDY    71  63  75 SW20G26   29.79R
BARABOO/DELLS  CLOUDY    71  63  75 SW17G25   29.79R
LONE ROCK      PTSUNNY   72  63  73 SW14G21   29.81R
MINERAL POINT  CLOUDY    72  63  73 SW15      29.83F
MADISON        PTSUNNY   72  61  68 SW10G18   29.81R
MIDDLETON      CLOUDY    73  61  65 SW16G25   29.83R
WATERTOWN      PTSUNNY   73  66  78 SW14      29.81S
MONROE         PTSUNNY   72  63  73 SW21      29.85F
JANESVILLE     CLOUDY    73  63  68 SW20G25   29.85R
$$

WIZ051-052-058>065-066-070>072-252000-
SOUTHEAST WISCONSIN

CITY           SKY/WX    TMP DP  RH WIND       PRES   REMARKS
MILWAUKEE      PTSUNNY   75  60  59 SW18G26   29.83R
WAUKESHA       PTSUNNY   70  63  78 SW16G23   29.84R
MILWAUKEE/TIMM PTSUNNY   73  59  60 SW21G26   29.82S
RACINE         CLOUDY    75  62  64 SW16G25   29.85S
BURLINGTON     PTSUNNY   71  63  76 SW20G26   29.85S
KENOSHA        PTSUNNY   75  64  68 W18G32    29.85R
FOND DU LAC    LGT RAIN  69  64  84 SW12      29.77R
SHEBOYGAN      PTSUNNY   74  63  68 SW21G29   29.77S
WEST BEND      CLOUDY    73  61  64 SW14G28   29.80R
JUNEAU         PTSUNNY   71  63  78 SW17      29.81S
$$

LSZ147-162-252000-
LAKE SUPERIOR

STATION/POSITION TIME  TEMP    WIND        PRES    WAVE
                       AIR SEA DIR/SP/G            HT/PER
                 (UTC) (F)     (DEG/KT/KT) (MB)    (FT/S)
W MID LAKE BUOY  1750   41 36   40/ 16/ 17 1055.0F   4/ 5
DEVILS ISLAND    1800   43      60/ 18/ 19 1057.0R
PORT WING        1740   44      20/ 12/ 14 1054.0F
SAXON HARBOR     1740   47        CALM     1047.0F
$$

LMZ867-665-643>646-252000-
LAKE MICHIGAN

STATION/POSITION TIME  TEMP    WIND        PRES    WAVE
                       AIR SEA DIR/SP/G            HT/PER
                 (UTC) (F)     (DEG/KT/KT) (MB)    (FT/S)
CHAMBERS ISLAND  1700   60     150/  7/ 16 1058.0F
N MID LAKE BUOY  1750   46 37  190/ 19/ 21 1062.0F   2/ 4
NORTHPORT PIER   1700   53     160/  8/ 16 1064.0F
SISTER BAY       1617   58     180/ 15/ 22   N/A
KEWAUNEE LAKESHO 1800   53     190/ 12/ 19 1065.0R
SHEBOYGAN LAKESH 1800   53     170/ 17/ 19 1085.0R
PORT WASHINGTON  1640          250/ 12/ 22   N/A
ATWATER BUOY     1800   68 46  210/ 14/ 19   N/A
MILWAUKEE LAKESH 1800   72     250/ 19/ 26   N/A
S MID LAKE BUOY  1750   48 38  200/ 14/ 16   N/A     2/ 4
$$

TC  - TEMPERATURE IN CELSIUS
VSB - VISIBILITY IN STATUTE MILES
WCI - WIND CHILL INDEX
HX  - HEAT INDEX




USA.gov is the U.S. government's official web portal to all federal, state and local government web resources and services.